GFSCGP_2pvu_pres_159.txt.gz
Presure
323 326 332 342 362 364 372 373 368 370 388 403 409 299 215 218 202 214 94 230 218 77 72 78 80 88 80 70 85 62 70 67 74 178 178 85 90 90 91 141 169 170 173 182
307 300 307 314 321 329 358 362 356 359 371 389 391 300 262 218 218 178 86 111 187 207 206 207 167 88 76 73 77 82 83 85 89 95 91 106 157 167 171 171 171 173 179 185
302 303 295 300 306 322 334 339 351 354 370 394 387 400 179 231 215 203 177 219 229 216 206 99 184 146 191 187 179 180 83 130 97 170 145 145 158 166 161 168 151 165 186 186
295 302 291 293 302 303 315 346 323 319 333 318 287 260 369 241 210 97 184 180 205 221 211 205 200 200 196 184 185 182 183 183 184 177 178 180 179 176 167 177 180 189 192 189
271 297 283 288 280 293 289 292 302 307 161 314 328 342 413 263 219 212 192 152 176 209 213 204 194 193 192 178 185 191 187 194 186 191 195 188 184 180 178 183 191 180 197 193
272 293 276 278 274 276 282 279 289 180 304 200 315 336 384 268 211 204 190 195 186 175 205 204 201 205 203 203 187 185 193 181 177 175 190 190 193 195 191 192 198 201 209 187
282 286 280 281 278 280 288 281 284 204 280 176 330 321 367 254 232 200 189 198 189 184 185 202 191 198 204 200 199 201 174 204 223 222 214 207 198 194 196 202 212 179 182 206
274 280 271 274 269 267 270 286 286 297 292 300 352 405 468 341 258 196 183 193 200 193 191 194 192 196 209 199 198 197 198 191 207 205 207 210 206 206 212 178 174 184 203 198
283 259 262 272 278 271 284 271 297 288 287 304 357 381 408 357 260 212 207 195 195 194 196 174 194 192 195 194 120 190 188 189 181 196 187 186 174 195 187 198 198 202 191 193
291 292 275 268 273 278 195 277 295 300 317 334 356 348 330 351 257 220 209 202 193 197 191 176 193 193 196 193 188 189 188 188 181 176 177 194 191 192 195 190 191 189 190 190
308 289 270 131 275 284 286 280 319 301 280 204 267 323 326 329 253 229 207 199 188 191 197 181 194 192 196 191 191 188 174 190 186 188 191 189 186 184 183 182 184 188 182 189
306 316 268 276 282 288 265 279 294 239 280 278 316 347 312 315 250 238 211 190 192 190 187 181 200 196 188 186 189 185 186 190 192 190 188 184 182 180 183 188 183 186 181 187
302 311 320 272 281 286 292 273 228 294 279 282 310 348 323 294 244 240 223 201 196 190 189 188 199 190 184 188 189 190 187 186 182 182 185 182 179 183 167 180 184 181 124 139
313 304 308 299 280 285 290 280 308 259 281 288 305 354 340 244 255 244 231 212 196 188 199 182 202 198 185 189 181 191 183 181 183 188 186 179 179 182 182 186 150 189 181 161
345 316 307 306 311 280 180 280 312 252 286 286 316 199 330 240 255 245 230 215 202 195 189 186 199 208 192 190 193 185 185 185 178 186 179 167 157 183 142 183 183 184 169 181
335 343 328 317 311 318 292 139 296 294 283 284 326 342 328 241 235 241 236 228 199 199 191 188 187 203 196 198 186 183 189 185 177 126 176 179 181 175 178 175 173 177 191 198
317 318 326 333 328 318 300 163 288 235 176 299 132 346 214 246 235 237 232 217 202 193 195 189 185 187 200 178 186 177 174 174 181 182 182 189 186 182 175 179 174 189 173 162
345 331 324 315 319 316 303 308 243 160 135 303 271 345 207 252 240 234 228 210 202 196 203 192 193 194 183 186 187 185 182 185 187 183 180 172 166 198 177 175 197 175 145 192
366 309 356 346 335 310 313 310 137 195 140 289 144 295 280 255 243 224 225 211 213 192 188 125 186 202 192 187 187 187 173 185 191 142 172 183 197 151 175 188 181 192 186 188
356 349 313 316 312 316 358 307 290 206 170 159 314 308 275 254 240 231 223 210 209 206 202 198 188 185 184 196 179 181 186 188 174 179 187 193 196 194 174 179 189 195 192 203
273 345 327 325 320 325 347 305 289 158 291 158 313 312 132 256 246 234 220 211 199 209 207 196 197 198 190 189 188 187 188 189 190 192 193 192 187 190 189 190 199 200 206 227
231 250 331 333 335 334 346 321 202 301 155 248 191 308 191 166 235 207 220 213 216 198 196 194 194 189 184 185 155 168 188 189 189 187 191 190 189 188 197 194 211 221 239 211
218 218 242 261 347 349 351 336 270 168 167 165 302 216 294 264 202 155 224 211 208 211 206 201 200 197 192 193 195 194 190 192 198 199 190 195 193 194 209 221 240 213 203 201
209 214 222 219 247 259 312 312 316 325 310 317 200 296 299 286 254 248 232 223 216 209 203 207 200 197 200 201 200 199 197 192 199 197 192 203 210 224 235 211 201 200 195 193
200 204 210 221 226 236 242 252 288 285 286 296 303 303 300 298 294 256 240 233 226 219 214 209 204 199 199 200 202 200 202 193 201 193 212 234 228 209 201 200 195 185 205 213
194 200 203 208 212 215 226 229 233 241 247 267 272 269 279 247 302 302 205 248 238 234 214 227 223 220 219 222 226 228 225 197 231 232 215 204 201 196 191 159 193 219 217 194

GFSCGP_2pvu_pres_165.txt.gz
Presure
196 264 326 322 309 309 311 339 353 363 388 388 362 155 407 410 381 269 257 246 230 247 86 227 216 202 193 187 187 180 179 174 88 173 173 177 88 84 78 146 91 89 90 95
189 338 325 314 299 295 303 308 306 318 346 424 376 372 378 390 410 412 267 249 228 282 129 194 88 132 207 79 120 196 159 179 184 111 101 153 113 88 89 88 85 176 95 113
362 327 312 308 296 284 287 293 300 221 302 313 365 408 364 331 211 400 421 256 257 200 95 166 232 166 225 210 173 139 123 101 181 129 134 119 83 94 95 92 95 95 152 176
362 327 317 308 290 287 288 282 295 298 302 305 321 341 390 366 367 388 419 377 200 108 99 238 209 99 119 115 81 82 82 162 174 166 86 93 96 94 97 157 174 167 169 173
326 326 312 294 292 293 279 286 291 284 291 295 310 304 333 404 409 404 465 444 284 219 216 74 228 214 231 222 202 100 189 127 93 91 166 127 174 180 174 172 175 145 175 170
343 321 314 299 293 285 277 271 277 287 288 293 304 310 321 334 414 338 449 431 362 207 81 222 159 190 228 219 210 203 187 91 185 187 181 176 173 173 172 174 176 179 183 179
349 327 314 306 293 281 285 284 288 281 285 307 291 298 305 321 361 430 448 427 404 209 210 221 215 178 153 217 211 204 200 196 197 192 190 181 175 173 171 172 173 174 181 177
323 332 314 304 304 286 276 278 290 288 289 300 284 292 303 313 324 378 408 399 270 249 203 208 205 186 186 210 209 206 204 205 205 203 196 192 180 180 180 186 191 186 189 187
322 337 332 303 305 300 281 277 291 296 298 299 284 287 306 295 330 348 395 379 378 262 206 199 212 193 175 177 209 208 210 209 205 202 200 195 193 188 184 193 186 190 190 198
324 319 341 328 301 309 299 283 287 280 294 268 206 303 344 356 333 349 400 377 388 268 218 202 214 208 187 181 180 208 206 202 203 201 198 197 194 193 192 188 191 194 201 203
343 327 340 339 305 314 282 282 284 295 285 105 236 299 338 355 342 349 393 375 363 231 219 201 201 205 204 183 182 192 187 208 200 201 201 196 195 193 193 194 194 207 194 202
354 320 321 336 306 321 275 281 287 299 268 298 297 316 347 342 381 384 374 371 348 224 215 206 202 210 184 189 182 187 199 181 190 204 205 204 198 190 197 200 208 194 202 189
342 302 325 356 307 323 280 289 291 115 294 292 297 297 312 320 365 360 339 341 358 225 222 211 200 202 200 198 188 181 174 175 171 209 206 207 204 199 191 191 195 200 190 191
325 309 328 316 318 321 286 288 243 273 297 289 257 287 291 305 348 322 338 343 342 225 212 220 203 201 192 194 188 189 161 183 181 180 182 196 200 169 185 187 190 182 188 186
323 315 310 324 330 316 306 278 296 263 285 270 237 277 287 299 312 341 310 337 346 224 206 220 204 199 193 202 185 198 194 185 188 184 176 186 185 180 183 183 184 178 183 175
322 323 317 338 326 212 298 128 295 279 287 277 288 276 289 297 312 303 343 320 307 223 212 230 207 193 193 193 186 189 193 189 189 183 181 182 183 181 178 179 183 189 184 183
263 329 323 314 331 256 325 291 256 282 278 286 278 283 276 294 316 304 305 291 298 223 188 225 209 203 197 189 190 191 180 181 183 183 182 180 175 174 174 189 187 186 183 184
240 335 334 321 315 333 316 305 304 286 289 279 288 281 228 293 315 296 294 285 237 225 208 205 213 203 199 161 175 176 190 190 197 188 176 176 189 186 185 184 181 179 173 170
231 253 343 329 317 315 304 305 310 293 300 287 306 285 292 156 307 291 290 272 256 198 221 209 210 199 203 201 194 197 190 174 177 182 182 179 182 184 177 184 172 171 197 194
219 235 263 353 321 343 324 311 154 150 166 256 291 310 289 287 156 289 280 273 247 233 211 209 209 198 204 190 193 191 198 198 193 182 181 182 179 173 177 190 192 188 177 179
212 219 241 267 343 298 299 295 157 157 278 165 149 262 290 292 315 283 281 284 253 242 225 184 209 205 191 196 205 201 190 191 196 190 187 186 186 189 186 177 166 177 184 174
205 212 227 242 271 335 347 314 302 262 303 300 187 149 226 169 291 287 284 281 271 175 179 217 218 187 206 203 196 189 194 199 195 189 191 191 186 180 173 184 186 190 188 184
198 207 208 222 237 255 347 315 310 223 280 198 286 164 297 280 283 166 282 272 250 226 225 218 226 214 216 211 209 205 202 200 198 191 178 173 174 186 188 190 191 197 184 196
185 204 207 209 225 231 247 304 310 299 300 301 298 160 303 156 282 302 287 277 257 226 157 152 212 208 210 213 212 209 197 192 191 190 192 194 196 199 189 183 193 185 185 195
199 196 204 205 211 218 228 239 247 309 310 244 300 159 163 218 156 278 233 276 248 223 182 228 233 231 223 221 219 214 199 198 195 187 172 179 200 199 186 192 188 197 198 199
198 201 200 195 205 208 212 219 233 236 249 317 308 298 314 305 293 291 280 263 176 187 230 222 218 224 221 215 217 216 212 204 202 200 193 177 186 182 193 196 201 198 225 230

GFSCGP_2pvu_pres_171.txt.gz
Presure
215 221 226 214 234 230 210 292 367 348 343 334 320 316 71 313 341 348 97 438 452 450 334 236 212 212 222 102 241 220 212 214 184 211 183 177 169 171 171 154 170 167 127 109
209 216 225 228 230 213 239 289 344 341 326 323 315 315 299 320 321 339 393 429 428 338 400 89 204 218 216 110 253 97 212 215 216 183 219 192 177 169 171 170 168 117 172 96
227 217 222 218 220 221 245 283 338 347 326 318 308 315 300 295 318 320 357 366 398 291 391 373 200 218 214 140 255 242 215 211 201 216 214 215 199 137 122 128 176 178 113 148
224 225 225 220 204 233 246 351 341 345 326 316 308 304 290 303 312 313 326 386 393 429 386 372 284 224 219 133 200 252 193 215 213 214 103 205 209 103 198 165 105 173 178 152
224 223 214 219 214 235 248 347 345 342 315 325 304 300 299 303 308 321 84 335 392 422 383 361 350 256 215 213 208 89 185 227 93 211 208 196 167 100 146 118 83 93 84 172
222 223 216 199 225 235 253 344 352 341 312 310 307 296 304 290 303 313 314 320 341 386 395 357 354 279 213 213 218 203 199 230 223 220 185 211 129 203 173 88 92 183 172 161
214 217 209 206 224 235 258 338 355 353 319 312 301 294 299 305 307 308 312 318 337 378 398 365 357 311 225 211 162 132 187 163 221 226 88 133 131 138 197 174 173 177 171 196
216 209 199 215 225 237 325 342 338 332 335 300 294 302 292 296 296 318 341 363 347 362 365 408 358 355 245 213 200 198 206 247 226 226 217 212 177 200 185 146 186 180 174 169
215 198 203 220 227 239 329 340 330 336 303 292 302 296 293 301 308 330 352 343 352 370 389 406 344 391 226 223 212 202 204 248 230 217 216 222 106 204 200 201 191 190 186 186
212 202 207 218 226 242 349 338 330 318 301 306 289 301 303 297 299 302 329 357 358 439 393 404 366 391 261 224 243 207 204 248 230 223 199 212 223 214 204 200 199 197 185 202
205 198 209 219 226 245 334 338 331 301 298 297 290 287 290 293 303 307 303 348 386 448 391 411 375 352 264 223 219 206 201 201 237 227 203 203 177 213 209 203 205 205 212 217
207 199 210 213 226 246 335 341 328 298 292 286 293 288 133 174 141 328 326 371 393 440 397 363 371 340 257 239 241 222 206 194 234 226 213 202 214 187 204 207 211 217 210 204
202 204 212 213 228 251 345 346 326 292 280 288 287 290 165 288 248 335 339 357 383 423 209 355 324 288 278 226 224 202 197 193 227 220 222 213 203 188 197 209 211 207 211 203
203 206 208 212 227 249 356 355 311 293 284 284 109 284 281 304 312 334 365 321 350 328 330 350 312 291 270 233 214 203 204 198 218 225 219 212 211 176 187 200 207 210 207 182
201 203 206 213 227 248 340 346 244 285 282 286 294 283 295 293 272 198 398 304 284 301 308 315 314 304 261 180 209 229 210 193 222 221 208 213 200 208 185 194 189 182 164 196
200 202 205 209 226 246 316 354 295 293 282 293 222 277 299 287 305 323 374 305 302 295 292 296 304 291 270 239 231 208 207 191 194 173 176 194 196 191 201 175 176 172 200 197
199 201 203 210 224 244 321 322 300 297 285 285 281 254 288 290 296 306 362 311 304 294 288 294 293 311 204 229 220 198 193 197 201 213 190 205 221 218 212 189 180 173 171 173
201 198 205 212 222 239 315 316 262 284 280 288 275 283 280 278 276 299 333 324 302 279 301 284 303 303 275 216 199 206 199 201 193 203 225 201 214 191 192 204 183 181 183 187
199 200 204 212 220 237 315 327 302 280 281 303 280 277 278 267 262 302 296 276 287 284 273 289 324 294 225 214 198 201 198 171 188 180 192 225 212 200 196 195 195 187 186 190
197 202 205 205 211 225 246 344 301 278 288 250 286 238 288 304 294 280 285 283 271 282 295 302 301 297 222 209 221 217 215 208 215 183 178 188 185 223 208 192 194 192 188 186
195 203 202 199 210 220 239 345 299 282 293 262 262 290 300 277 272 270 275 273 262 282 290 312 291 286 228 226 226 216 178 207 210 215 203 195 194 187 183 180 180 182 182 186
193 200 198 204 203 212 227 258 318 291 313 238 150 182 156 276 269 140 220 211 273 285 292 292 299 245 231 227 223 212 209 209 209 224 202 205 201 200 200 197 193 191 190 184
195 198 197 197 203 205 220 228 317 304 284 302 233 177 278 231 143 279 138 258 253 269 275 273 245 220 232 226 224 216 200 212 193 189 197 196 193 191 189 182 178 178 183 189
195 199 203 201 204 202 205 220 230 310 317 289 285 284 160 153 272 232 260 263 266 278 272 311 280 284 227 207 218 217 214 212 217 204 199 178 182 201 202 202 201 196 190 190
194 192 193 199 192 203 209 202 218 229 321 302 227 243 295 278 289 276 269 272 263 268 286 308 293 222 230 211 210 210 191 190 184 203 212 212 201 192 188 196 202 204 199 195
197 197 197 196 196 186 188 211 201 216 226 312 300 312 289 168 251 258 207 258 241 236 264 267 294 274 216 221 225 217 214 208 208 211 211 212 207 202 201 200 199 201 202 206

GFSCGP_2pvu_pres_174.txt.gz
Presure
208 206 223 223 225 229 239 252 243 228 224 253 267 363 341 331 332 331 328 338 332 345 445 461 465 239 236 202 107 87 219 90 200 217 207 198 201 201 207 168 99 177 171 178
214 210 218 218 229 214 243 245 234 217 239 257 315 359 331 327 324 324 314 330 331 149 338 454 439 464 234 200 129 93 211 201 194 185 227 213 228 173 177 185 177 169 171 167
216 188 225 232 237 222 230 242 217 224 249 260 370 361 328 322 315 307 302 320 332 326 355 252 371 253 154 221 184 196 201 227 197 227 103 188 203 151 172 190 190 172 168 132
217 220 232 245 238 234 233 219 218 240 254 278 360 371 310 324 319 300 330 306 324 323 354 400 352 432 415 216 207 197 194 207 185 247 229 158 117 220 202 194 196 94 175 174
223 221 216 226 238 222 235 212 226 245 253 386 351 344 82 330 308 67 295 296 313 323 100 419 411 415 398 209 215 203 195 197 102 177 185 213 212 200 207 217 177 209 86 174
232 225 238 241 231 231 219 221 234 245 258 343 329 329 312 309 309 303 301 259 213 296 326 398 405 404 391 250 226 208 203 208 194 213 202 185 226 84 101 207 213 151 208 182
211 235 247 241 217 228 211 225 241 246 363 343 324 302 301 312 302 310 294 319 339 335 225 385 403 395 385 360 291 202 157 201 196 233 221 212 217 208 201 131 202 200 197 102
235 234 240 232 224 210 215 232 239 251 360 318 301 319 304 310 312 295 295 303 341 350 324 364 391 379 372 355 294 205 202 144 90 84 227 238 231 210 201 166 202 199 194 94
222 188 215 223 222 210 219 228 238 264 344 309 311 294 293 286 293 302 304 300 317 366 330 356 390 367 366 353 288 194 174 150 203 212 371 227 226 222 206 203 199 195 192 196
225 159 224 222 205 213 220 231 243 361 325 317 293 299 289 283 290 298 308 317 328 336 330 356 393 363 359 215 79 215 205 201 223 196 182 248 226 223 222 209 197 183 196 194
227 176 232 223 210 217 226 232 246 353 306 306 303 293 292 290 302 331 323 325 361 348 355 380 396 365 328 331 160 231 211 202 204 205 201 202 237 229 213 209 206 206 195 199
163 237 217 208 207 218 224 233 249 334 306 301 293 303 283 290 298 311 137 353 359 385 407 394 391 363 355 311 269 243 213 153 204 202 174 182 229 231 226 194 212 208 182 205
213 234 216 200 206 218 225 237 307 308 303 294 285 286 289 153 146 307 329 331 353 437 418 395 378 356 342 299 259 238 227 210 212 199 188 183 166 235 221 203 167 216 209 216
232 215 209 201 215 218 223 238 325 304 298 296 290 289 282 284 299 311 351 235 348 378 428 400 363 344 305 286 205 227 219 189 205 200 196 188 192 235 214 208 194 169 181 166
223 214 199 206 216 221 225 237 318 301 300 279 292 277 283 287 187 329 345 325 338 405 401 351 343 315 289 246 199 234 217 180 219 203 201 196 178 197 211 206 210 201 201 166
219 212 201 208 215 221 224 239 315 307 292 282 294 291 285 292 308 164 354 335 359 339 380 298 294 281 283 256 237 153 164 241 181 254 201 198 185 177 214 214 211 210 161 170
214 208 202 210 211 221 223 240 316 288 296 301 275 270 279 274 299 313 321 340 305 278 288 291 282 259 264 245 154 217 236 255 200 230 200 191 189 186 198 184 201 211 210 211
215 198 201 203 212 218 217 239 310 296 311 291 279 277 262 269 277 284 326 290 275 289 280 266 265 270 255 201 181 232 230 232 250 207 205 178 176 196 161 185 215 211 184 211
209 196 204 203 211 210 226 237 305 178 303 286 267 274 239 266 283 293 292 284 160 286 279 265 260 257 259 257 248 187 220 212 199 197 190 183 194 197 177 182 221 208 223 207
209 196 205 195 211 211 213 229 311 169 294 278 281 264 259 286 274 314 281 277 286 271 279 273 265 258 246 260 262 260 231 201 210 213 209 167 171 188 206 225 219 199 227 206
213 196 205 205 203 214 213 228 317 286 303 279 291 282 275 277 270 206 221 182 281 261 294 275 268 268 264 268 253 212 197 213 220 210 200 205 198 192 236 177 174 226 198 200
206 195 206 201 203 201 218 216 286 310 305 294 304 271 268 277 269 277 260 269 273 280 271 272 275 279 276 257 210 199 214 195 215 211 217 214 221 191 184 190 194 187 187 203
194 198 205 205 197 200 210 215 229 318 153 299 162 179 262 259 267 271 129 188 252 271 280 297 280 278 265 266 225 218 172 225 233 210 194 195 221 200 201 205 191 188 189 188
197 192 198 199 208 202 203 217 218 288 322 302 160 161 184 272 160 272 278 259 256 273 284 287 285 279 279 263 233 263 227 228 220 226 226 211 206 203 202 200 206 207 206 202
197 196 204 202 200 207 198 204 219 216 313 317 262 281 271 261 213 259 198 258 264 278 285 283 285 271 276 277 282 254 238 223 215 213 211 208 207 205 206 209 210 215 213 216
198 198 198 196 197 197 207 205 200 217 218 321 288 180 159 241 272 208 195 261 256 250 206 186 265 283 272 274 228 261 226 211 212 192 183 188 189 183 186 185 201 204 189 185